sat.trackr.live / text

‹ back to catalog

SBIRS GEO-1 (USA 230)

NORAD 37481 · 2011-019A

PAYLOAD ACTIVE UNKNOWN

§ Identity

Operator
Country
US
Launch date
2011-05-07
Launch site
AFETR
Launch vehicle
Mass (kg)
RCS (m²)
19.95

Purposes: comms

External: N2YO · Heavens-Above · Gunter

§ Orbital elements

Epoch: 2026-05-24T22:51:25.339104Z

Period
1,436.09 min
Inclination
4.4859°
Eccentricity
0.0002206
Mean motion
1.00272070 rev/d
Perigee alt
35,777.2 km
Apogee alt
35,795.8 km
Semi-major
42,164.7 km
B*
0.0000e+0
RAAN
53.1294°
Arg perigee
2.5369°
Mean anomaly
221.5400°
Rev number
5,516

§ Raw data

SBIRS GEO-1 (USA 230)1 37481U 11019A   26144.95237661  .00000097  00000+0  00000+0 0  99952 37481   4.4859  53.1294 0002206   2.5369 221.5400  1.00272070 55164

JSON: /api/v1/satellites/37481 · /tle

For live sub-satellite position, see the globe view (requires WebGL).

§ Visibility from observer

Set your observer location to see the next 7 days of passes ≥ 10°. The values pass through the URL so the page stays shareable.

No JS? Fill the form by hand. The geolocation button needs JavaScript.